This demonstration page uses our WeatherBlox Daily Observations layout. Learn more.

Left ArrowRight Arrow

34.02893, -84.19858

Hourly Observations for July 21, 2021

Temp ( °F °C ) Dew Point ( °F °C ) Humidity (%) Winds ( mph kmh ) Pressure ( in mb ) Visibility ( mi km ) Precip ( " mm )
12:24 am 00:24 Mostly Cloudy 72 22.2 71 21.7 97 97 Calm 29.98 1015 10 16 0.00 0.00
12:53 am 00:53 Cloudy 72 22.2 71 21.7 97 97 Calm 29.96 1015 10 16 0.00 0.00
1:26 am 01:26 Cloudy 72 22.2 71 21.7 97 97 Calm 29.98 1015 10 16 0.00 0.00
1:40 am 01:40 Cloudy 72 22.2 71 21.7 97 97 Calm 29.98 1015 10 16 0.00 0.00
1:53 am 01:53 Cloudy with Light Rain 72 22.2 71 21.7 97 97 Calm 29.96 1014 9 14 0.00 0.00
2:53 am 02:53 Cloudy 72 22.2 71 21.7 97 97 Calm 29.96 1015 10 16 0.00 0.00
3:25 am 03:25 Cloudy 72 22.2 71 21.7 97 97 Calm 29.97 1015 8 13 0.00 0.00
3:53 am 03:53 Cloudy 72 22.2 71 21.7 97 97 Calm 29.97 1015 10 16 0.01 0.25
4:25 am 04:25 Cloudy 72 22.2 71 21.7 97 97 S 3 6 29.99 1015 10 16 0.00 0.00
4:35 am 04:35 Cloudy 72 22.2 71 21.7 97 97 Calm 29.99 1015 10 16 0.00 0.00
4:53 am 04:53 Cloudy 72 22.2 71 21.7 97 97 Calm 29.97 1015 9 14 0.00 0.00
5:14 am 05:14 Cloudy 72 22.2 71 21.7 97 97 Calm 29.99 1015 10 16 0.00 0.00
5:36 am 05:36 Cloudy with Mist and Fog 71 21.7 71 21.7 100 100 Calm 29.99 1016 6 10 0.00 0.00
5:53 am 05:53 Cloudy 71 21.7 71 21.7 100 100 Calm 29.99 1016 8 13 0.00 0.00
6:01 am 06:01 Cloudy 71 21.7 71 21.7 100 100 SW 3 6 30.01 1016 9 14 0.00 0.00
6:53 am 06:53 Cloudy 72 22.2 71 21.7 97 97 SSW 5 7 30.01 1016 10 16 0.00 0.00
7:53 am 07:53 Cloudy 72 22.2 71 21.7 97 97 WSW 3 6 30.02 1017 10 16 0.00 0.00
8:53 am 08:53 Cloudy 74 23.3 71 21.7 91 91 SW 5 7 30.04 1017 10 16 0.00 0.00
9:53 am 09:53 Mostly Cloudy 75 23.9 71 21.7 88 88 W 5 7 30.05 1018 10 16 0.00 0.00
10:00 am 10:00 Mostly Cloudy 75 23.9 72 22.2 90 90 VRB 7 11 30.05 1018 10 16 0.00 0.00
10:53 am 10:53 Mostly Cloudy 77 25 71 21.7 82 82 VRB 3 6 30.05 1018 10 16 0.00 0.00
11:05 am 11:05 Mostly Cloudy 78 25.6 71 21.7 79 79 VRB 3 6 30.05 1018 10 16 0.00 0.00
11:45 am 11:45 Partly Cloudy 79 26.1 71 21.7 77 77 VRB 3 6 30.05 1018 10 16 0.00 0.00
11:53 am 11:53 Partly Cloudy 80 26.7 71 21.7 74 74 W 5 7 30.05 1018 10 16 0.00 0.00
12:50 pm 12:50 Mostly Cloudy 81 27 72 22 74 74 WSW 6 9 30.04 1017 10 16 0.00 0.00
12:53 pm 12:53 Mostly Cloudy 81 27.2 71 21.7 72 72 W 5 7 30.04 1017 10 16 0.00 0.00
1:27 pm 13:27 Partly Cloudy 84 28.9 70 21.1 63 63 WSW 6 9 30.02 1017 10 16 0.00 0.00
1:34 pm 13:34 Mostly Cloudy 83 28.3 71 21.7 67 67 W 6 9 30.02 1016 10 16 0.00 0.00
1:53 pm 13:53 Mostly Cloudy 84 28.9 71 21.7 65 65 NW 6 9 30.01 1016 10 16 0.00 0.00
2:00 pm 14:00 Mostly Cloudy 84 28.9 72 22.2 67 67 SW 7 11 30.01 1016 10 16 0.00 0.00
2:53 pm 14:53 Mostly Cloudy 83 28.3 71 21.7 67 67 N 3 6 30.00 1016 10 16 0.00 0.00
3:53 pm 15:53 Partly Cloudy 84 28.9 70 21.1 63 63 VRB 5 7 29.99 1016 10 16 0.00 0.00
4:53 pm 16:53 Mostly Sunny 86 30 70 21.1 59 59 WNW 3 6 29.97 1015 10 16 0.00 0.00
5:53 pm 17:53 Mostly Cloudy 85 29.4 70 21.1 61 61 W 5 7 29.98 1015 10 16 0.00 0.00
6:53 pm 18:53 Mostly Sunny 84 28.9 71 21.7 65 65 W 5 7 29.98 1015 10 16 0.00 0.00
7:53 pm 19:53 Cloudy 80 26.7 70 21.1 71 71 SE 6 9 29.99 1016 10 16 0.00 0.00
8:48 pm 20:48 Cloudy with Thunderstorms 79 26 72 22 79 79 S 9 15 30.01 1016 10 16 0.00 0.00
8:53 pm 20:53 Cloudy with Thunderstorms 78 25.6 72 22.2 82 82 SSW 9 15 30.01 1016 10 16 0.00 0.00
9:04 pm 21:04 Cloudy with Nearby Thunderstorms 77 25 72 22.2 85 85 SSW 10 17 30.03 1017 10 16 0.00 0.00
9:16 pm 21:16 Cloudy 76 24.4 72 22.2 88 88 SW 7 11 30.03 1017 10 16 0.00 0.00
9:53 pm 21:53 Cloudy 76 24.4 72 22.2 88 88 SW 7 11 30.05 1018 10 16 0.00 0.00
10:53 pm 22:53 Cloudy 75 23.9 72 22.2 90 90 Calm 30.06 1018 10 16 0.00 0.00
11:53 pm 23:53 Mostly Clear 73 22.8 72 22.2 96 96 Calm 30.05 1018 10 16 0.00 0.00

Powered by AerisWeather